Location: Agadir Mansour Mhndou
(31.2424°N, 8.7730°W)
Time: 19:03:06
(UTC+00:00)

NOSS 3-1 (C) - Pass Details

Date: 16 October 2021
Orbit: 717 x 1491 km, 63.4° (Epoch: 25 November)

Event Time Altitude Azimuth Distance (km) Brightness Sun altitude
Rises 18:38:28 0° 170° (S) 3,106 6.1 -8.5°
Reaches altitude 10° 18:41:23 10° 151° (SSE) 2,212 5.2 -9.2°
Maximum altitude 18:44:47 19° 108° (ESE) 1,761 4.3 -9.9°
Enters shadow 18:47:36 13° 71° (ENE) 2,165 4.7 -10.5°
